Weather History for KBBB - July, 2013

Change the Weather History Date:

Thursday, July 4, 2013

  Actual Average Record
Temperature  
Mean Temperature 74 °F -  
Max Temperature 89 °F 83 °F 99 °F (1988)
Min Temperature 60 °F 60 °F 42 °F (1967)
Cooling Degree Days 10    
Growing Degree Days 24 (Base 50)    
Moisture  
Dew Point 56 °F    
Average Humidity 51    
Maximum Humidity 77    
Minimum Humidity 29    
Precipitation  
Precipitation 0.00 in - - ()
Sea Level Pressure  
Sea Level Pressure 29.86 in    
Wind  
Wind Speed 9 mph (SSW)    
Max Wind Speed 21 mph    
Max Gust Speed 26 mph    
Visibility 10 miles    
Events      
Averages and records for this station are not official NWS values.
T = Trace of Precipitation, MM = Missing Value Source: NWS Daily Summary

Daily Weather History Graph

Daily Weather History Graph

Search for Another Location

Airport or City:

Trip Planner

Search our weather history database for the weather conditions in past years. The results will help you decide how hot, cold, wet, or windy it might be!

Date:

Astronomy

Jul. 04, 2013 Rise Set
Actual Time 5:40 AM CDT 9:13 PM CDT
Civil Twilight 5:03 AM CDT 9:50 PM CDT
Nautical Twilight 4:13 AM CDT 10:39 PM CDT
Astronomical Twilight 3:08 AM CDT 11:44 PM CDT
Moon 3:02 AM CDT (7/4) 6:15 PM CDT (7/4)
Length of Visible Light 16h 47m
Length of Day
15h 32m
Waning Crescent, 11% of the Moon is Illuminated
Jul 4
Waning Crescent
Jul 8
New
Jul 15
First Quarter
Jul 22
Full
Jul 29
Last Quarter

Hourly Weather History & Observations

Time (CDT) Temp. Heat Index Dew Point Humidity Pressure Visibility Wind Dir Wind Speed Gust Speed Precip Events Conditions
12:12 AM 66.2 °F - 51.8 °F 60% 29.94 in 10.0 mi South 6.9 mph - N/A   Clear
12:32 AM 66.2 °F - 51.8 °F 60% 29.93 in 10.0 mi South 8.1 mph - N/A   Clear
12:53 AM 66.2 °F - 51.8 °F 60% 29.93 in 10.0 mi South 6.9 mph - N/A   Clear
1:12 AM 66.2 °F - 51.8 °F 60% 29.93 in 10.0 mi South 6.9 mph - N/A   Clear
1:33 AM 66.2 °F - 51.8 °F 60% 29.93 in 10.0 mi South 5.8 mph - N/A   Clear
1:53 AM 66.2 °F - 51.8 °F 60% 29.92 in 10.0 mi South 8.1 mph - N/A   Clear
2:12 AM 66.2 °F - 51.8 °F 60% 29.92 in 10.0 mi South 6.9 mph - N/A   Clear
2:33 AM 64.4 °F - 51.8 °F 64% 29.92 in 10.0 mi South 5.8 mph - N/A   Clear
2:53 AM 64.4 °F - 51.8 °F 64% 29.92 in 10.0 mi South 6.9 mph - N/A   Clear
3:12 AM 64.4 °F - 51.8 °F 64% 29.91 in 10.0 mi South 4.6 mph - N/A   Clear
3:33 AM 62.6 °F - 51.8 °F 68% 29.91 in 10.0 mi South 5.8 mph - N/A   Clear
3:52 AM 62.6 °F - 51.8 °F 68% 29.91 in 10.0 mi South 5.8 mph - N/A   Clear
4:12 AM 62.6 °F - 53.6 °F 72% 29.91 in 10.0 mi South 5.8 mph - N/A   Scattered Clouds
4:33 AM 62.6 °F - 53.6 °F 72% 29.91 in 10.0 mi South 5.8 mph - N/A   Scattered Clouds
4:52 AM 62.6 °F - 53.6 °F 72% 29.91 in 10.0 mi South 6.9 mph - N/A   Clear
5:09 AM 62.6 °F - 53.6 °F 72% 29.91 in 10.0 mi South 5.8 mph - N/A   Clear
5:33 AM 62.6 °F - 53.6 °F 72% 29.91 in 10.0 mi South 5.8 mph - N/A   Clear
5:52 AM 60.8 °F - 53.6 °F 77% 29.91 in 10.0 mi South 4.6 mph - N/A   Clear
6:13 AM 60.8 °F - 53.6 °F 77% 29.91 in 10.0 mi South 4.6 mph - N/A   Clear
6:32 AM 62.6 °F - 55.4 °F 77% 29.91 in 10.0 mi South 4.6 mph - N/A   Clear
6:52 AM 62.6 °F - 55.4 °F 77% 29.91 in 10.0 mi South 4.6 mph - N/A   Clear
7:12 AM 64.4 °F - 55.4 °F 73% 29.90 in 10.0 mi South 5.8 mph - N/A   Clear
7:31 AM 66.2 °F - 57.2 °F 73% 29.90 in 10.0 mi South 5.8 mph - N/A   Clear
7:53 AM 68.0 °F - 59.0 °F 73% 29.90 in 10.0 mi SSW 4.6 mph - N/A   Clear
8:12 AM 71.6 °F - 60.8 °F 69% 29.90 in 10.0 mi SSW 6.9 mph - N/A   Scattered Clouds
8:32 AM 73.4 °F - 60.8 °F 65% 29.89 in 10.0 mi SW 9.2 mph - N/A   Clear
8:53 AM 73.4 °F - 60.8 °F 65% 29.89 in 10.0 mi SSW 8.1 mph - N/A   Clear
9:12 AM 75.2 °F - 60.8 °F 61% 29.89 in 10.0 mi SSW 8.1 mph - N/A   Clear
9:33 AM 77.0 °F - 60.8 °F 57% 29.89 in 10.0 mi SSW 9.2 mph - N/A   Scattered Clouds
9:53 AM 78.8 °F - 59.0 °F 51% 29.88 in 10.0 mi South 9.2 mph - N/A   Clear
10:12 AM 80.6 °F 80.8 °F 57.2 °F 45% 29.87 in 10.0 mi SW 10.4 mph - N/A   Clear
10:33 AM 80.6 °F 80.8 °F 57.2 °F 45% 29.87 in 10.0 mi SSW 13.8 mph - N/A   Clear
10:53 AM 82.4 °F 82.5 °F 59.0 °F 45% 29.86 in 10.0 mi SSW 13.8 mph 17.3 mph N/A   Clear
11:12 AM 82.4 °F 82.5 °F 59.0 °F 45% 29.86 in 10.0 mi SSW 13.8 mph - N/A   Clear
11:33 AM 84.2 °F 83.5 °F 57.2 °F 40% 29.85 in 10.0 mi SSW 12.7 mph - N/A   Clear
11:53 AM 84.2 °F 83.5 °F 57.2 °F 40% 29.85 in 10.0 mi SW 15.0 mph 19.6 mph N/A   Clear
12:12 PM 84.2 °F 83.0 °F 55.4 °F 37% 29.85 in 10.0 mi SW 13.8 mph 23.0 mph N/A   Clear
12:33 PM 86.0 °F 84.5 °F 55.4 °F 35% 29.85 in 10.0 mi SW 18.4 mph 26.5 mph N/A   Clear
12:53 PM 87.8 °F 85.7 °F 53.6 °F 31% 29.84 in 10.0 mi SW 20.7 mph 26.5 mph N/A   Clear
1:12 PM 87.8 °F 85.7 °F 53.6 °F 31% 29.84 in 10.0 mi SW 17.3 mph 25.3 mph N/A   Clear
1:33 PM 87.8 °F 85.7 °F 53.6 °F 31% 29.83 in 10.0 mi SW 17.3 mph 24.2 mph N/A   Clear
1:53 PM 87.8 °F 85.7 °F 53.6 °F 31% 29.82 in 10.0 mi SSW 18.4 mph 26.5 mph N/A   Clear
2:12 PM 89.6 °F 87.7 °F 55.4 °F 31% 29.82 in 10.0 mi SSW 19.6 mph 24.2 mph N/A   Clear
2:33 PM 89.6 °F 87.3 °F 53.6 °F 29% 29.82 in 10.0 mi SSW 17.3 mph 24.2 mph N/A   Clear
2:52 PM 89.6 °F 87.7 °F 55.4 °F 31% 29.81 in 10.0 mi SW 20.7 mph 25.3 mph N/A   Clear
3:13 PM 89.6 °F 87.3 °F 53.6 °F 29% 29.81 in 10.0 mi SW 17.3 mph 25.3 mph N/A   Clear
3:33 PM 87.8 °F 85.7 °F 53.6 °F 31% 29.81 in 10.0 mi SW 19.6 mph 23.0 mph N/A   Clear
3:52 PM 89.6 °F 87.7 °F 55.4 °F 31% 29.81 in 10.0 mi SW 16.1 mph 24.2 mph N/A   Clear
4:13 PM 89.6 °F 87.7 °F 55.4 °F 31% 29.81 in 10.0 mi WSW 17.3 mph 23.0 mph N/A   Clear
4:33 PM 89.6 °F 87.7 °F 55.4 °F 31% 29.81 in 10.0 mi SW 17.3 mph 23.0 mph N/A   Clear
4:52 PM 89.6 °F 87.7 °F 55.4 °F 31% 29.81 in 10.0 mi SW 18.4 mph 23.0 mph N/A   Clear
5:13 PM 87.8 °F 86.1 °F 55.4 °F 33% 29.80 in 10.0 mi SW 16.1 mph 20.7 mph N/A   Clear
5:32 PM 87.8 °F 86.1 °F 55.4 °F 33% 29.80 in 10.0 mi SW 15.0 mph 19.6 mph N/A   Clear
5:52 PM 87.8 °F 86.1 °F 55.4 °F 33% 29.80 in 10.0 mi SW 16.1 mph 25.3 mph N/A   Clear
6:13 PM 86.0 °F 84.9 °F 57.2 °F 37% 29.79 in 10.0 mi SW 17.3 mph 24.2 mph N/A   Clear
6:32 PM 84.2 °F 83.5 °F 57.2 °F 40% 29.79 in 10.0 mi SSW 10.4 mph - N/A   Clear
6:52 PM 84.2 °F 83.8 °F 59.0 °F 42% 29.79 in 10.0 mi SSW 12.7 mph 20.7 mph N/A   Clear
7:13 PM 84.2 °F 83.5 °F 57.2 °F 40% 29.79 in 10.0 mi SSW 13.8 mph - N/A   Clear
7:32 PM 84.2 °F 83.5 °F 57.2 °F 40% 29.79 in 10.0 mi SW 13.8 mph 18.4 mph N/A   Clear
7:53 PM 84.2 °F 83.5 °F 57.2 °F 40% 29.78 in 10.0 mi SSW 13.8 mph - N/A   Clear
8:13 PM 82.4 °F 82.0 °F 57.2 °F 42% 29.78 in 10.0 mi SSW 13.8 mph 19.6 mph N/A   Clear
8:32 PM 80.6 °F 81.1 °F 59.0 °F 48% 29.78 in 10.0 mi SSW 10.4 mph - N/A   Clear
8:53 PM 80.6 °F 81.1 °F 59.0 °F 48% 29.79 in 10.0 mi SSW 10.4 mph - N/A   Clear
9:13 PM 78.8 °F - 59.0 °F 51% 29.79 in 10.0 mi SSW 8.1 mph - N/A   Clear
9:32 PM 78.8 °F - 59.0 °F 51% 29.80 in 10.0 mi SSW 9.2 mph - N/A   Clear
9:53 PM 77.0 °F - 59.0 °F 54% 29.81 in 10.0 mi SSW 9.2 mph - N/A   Clear
10:12 PM 77.0 °F - 59.0 °F 54% 29.81 in 10.0 mi SSW 10.4 mph - N/A   Clear
10:32 PM 75.2 °F - 59.0 °F 57% 29.82 in 10.0 mi South 8.1 mph - N/A   Clear
10:53 PM 75.2 °F - 57.2 °F 53% 29.82 in 10.0 mi South 10.4 mph - N/A   Clear
11:12 PM 75.2 °F - 57.2 °F 53% 29.81 in 10.0 mi South 10.4 mph - N/A   Clear
11:32 PM 75.2 °F - 57.2 °F 53% 29.81 in 10.0 mi South 9.2 mph - N/A   Clear
11:53 PM 73.4 °F - 57.2 °F 57% 29.81 in 10.0 mi SSW 10.4 mph - N/A   Clear